{"data":{"norad_id":67916,"epoch":"2026-09-19T06:56:52.996992Z","epoch_age_seconds":167737,"freshness":"FRESH","line1":"1 67916U 26036N   26262.28950228  .00009243  00000+0  34472-3 0  9990","line2":"2 67916  42.9992 231.6484 0000139 287.9372  72.1465 15.27602834 33330","mean_motion":15.27602834,"eccentricity":1.39e-5,"inclination_deg":42.9992,"raan_deg":231.6484,"arg_perigee_deg":287.9372,"mean_anomaly_deg":72.1465,"bstar":0.00034472,"rev_number":3333,"period_min":94.265339651759,"perigee_km":482.88535414449,"apogee_km":483.07609321721,"semimajor_km":6861.1177236808,"source":"CELESTRAK","updated_at":"2026-09-20T09:00:43.703373Z"}}